NORTHEAST SUFFOLK  -  Rip Current Statement Rip Current Statement        NORTHERN NASSAU  -  Rip Current Statement Rip Current Statement        NORTHERN QUEENS  -  Rip Current Statement Rip Current Statement     Air Quality Alert Air Quality Alert        NORTHWEST SUFFOLK  -  Rip Current Statement Rip Current Statement        SOUTHEAST SUFFOLK  -  Rip Current Statement Rip Current Statement        SOUTHERN NASSAU  -  Rip Current Statement Rip Current Statement        SOUTHERN QUEENS  -  Rip Current Statement Rip Current Statement     Air Quality Alert Air Quality Alert        SOUTHWEST SUFFOLK  -  Rip Current Statement Rip Current Statement      

Active alerts

Northern Queens
  Details for Northern Queens Rip Current Statement  +1 additional alert
Southern Queens
  Details for Southern Queens Rip Current Statement  +1 additional alert
Northern Nassau
  Details for Northern Nassau Rip Current Statement
Southern Nassau
  Details for Southern Nassau Rip Current Statement
Northwest Suffolk
  Details for Northwest Suffolk Rip Current Statement
Southwest Suffolk
  Details for Southwest Suffolk Rip Current Statement
Northeast Suffolk
  Details for Northeast Suffolk Rip Current Statement
Southeast Suffolk
  Details for Southeast Suffolk Rip Current Statement


WXM80 ListenWXM80 Stop

You find our weather info also at:

UK Metoffice

WeatherCloud

Weather Underground

Northeastern Weather Network

AWEKAS

Citizen Weather Observer Program (CWOP)

HAMweather, WeatherForYou, PWS Weather


Weather Underground History page Text

Daily Summary for February 26, 2017 Units:  Metric    English   Both
« Previous Day
Next Day »
Daily Weekly Monthly Yearly Custom
  High: Low: Average:
Temperature: 6.3 °C 0.8 °C 4.1 °C
Dew Point: 4.7 °C -5.8 °C -3.3 °C
Humidity: 90 % 44 % 60 %
Wind Speed: 21.2 km/h 0 km/h 9.2 km/h
Wind Gust: 37 km/h - -
Wind:- - WNW
Pressure: 1023.9 hPa 1001.9 hPa -
Precipitation: 0 mm    
Historical Graphs
 
 
Tabular Data for February 26, 2017
Time Temperature Dew Point Pressure Wind Wind Speed Wind Gust Humidity Rainfall Rate (Hourly)
00:03 6.3 °C 4.7 °C 1001.9 hPa NW 6.4 km/h 13 km/h 89 % 0 mm
00:08 6.2 °C 4.4 °C 1002.6 hPa NW 8.4 km/h 13 km/h 88 % 0 mm
00:13 6.2 °C 4.3 °C 1003.3 hPa WNW 4.8 km/h 11.3 km/h 88 % 0 mm
00:18 6.2 °C 4.5 °C 1003.3 hPa WNW 4.8 km/h 12.9 km/h 89 % 0 mm
00:23 6.1 °C 4.4 °C 1003.3 hPa WNW 4.8 km/h 16.1 km/h 89 % 0 mm
00:28 6.1 °C 4.4 °C 1003.3 hPa NW 6.6 km/h 16.1 km/h 89 % 0 mm
00:33 6.1 °C 4.4 °C 1002.9 hPa NW 4.8 km/h 24.1 km/h 89 % 0 mm
00:38 6 °C 4.3 °C 1002.9 hPa NW 8 km/h 19.3 km/h 89 % 0 mm
00:43 6 °C 4.3 °C 1002.9 hPa WNW 1.6 km/h 12.9 km/h 89 % 0 mm
00:48 5.9 °C 4.3 °C 1002.9 hPa NW 11.4 km/h 20.4 km/h 89 % 0 mm
00:53 5.9 °C 4.4 °C 1002.6 hPa NW 9.7 km/h 19.3 km/h 90 % 0 mm
00:58 5.8 °C 4.2 °C 1003.3 hPa SSW 6.8 km/h 14.8 km/h 89 % 0 mm
01:03 5.8 °C 4.2 °C 1002.9 hPa WSW 4.3 km/h 13 km/h 89 % 0 mm
01:08 5.8 °C 4.1 °C 1003.9 hPa WNW 10 km/h 18.5 km/h 89 % 0 mm
01:13 5.8 °C 4 °C 1003.9 hPa NW 9.7 km/h 16.7 km/h 88 % 0 mm
01:18 5.8 °C 3.7 °C 1003.9 hPa NW 13.2 km/h 25.9 km/h 86 % 0 mm
01:23 5.8 °C 3.3 °C 1004.3 hPa WNW 8.9 km/h 13 km/h 84 % 0 mm
01:28 5.8 °C 3.2 °C 1004.3 hPa SW 10.5 km/h 16.7 km/h 83 % 0 mm
01:33 5.8 °C 2.8 °C 1004.3 hPa NW 15.4 km/h 20.4 km/h 81 % 0 mm
01:38 5.8 °C 2.8 °C 1004.3 hPa West 7.2 km/h 16.7 km/h 81 % 0 mm
01:43 5.8 °C 2.6 °C 1004.3 hPa NW 12.4 km/h 22.2 km/h 80 % 0 mm
01:48 5.7 °C 2.4 °C 1004.3 hPa North 8.7 km/h 14.8 km/h 79 % 0 mm
01:53 5.7 °C 2.1 °C 1004.6 hPa West 10.5 km/h 14.8 km/h 78 % 0 mm
01:59 5.6 °C 1.8 °C 1004.6 hPa NW 9.7 km/h 14.8 km/h 77 % 0 mm
02:04 5.5 °C 1.6 °C 1005 hPa WNW 9 km/h 20.4 km/h 76 % 0 mm
02:09 5.4 °C 1.1 °C 1005 hPa NW 7.9 km/h 13 km/h 74 % 0 mm
02:14 5.3 °C 1 °C 1005 hPa West 9.8 km/h 20.4 km/h 74 % 0 mm
02:19 5.2 °C 0.9 °C 1005 hPa West 9.8 km/h 29.6 km/h 74 % 0 mm
02:24 5.2 °C 0.9 °C 1005.3 hPa West 12.2 km/h 24.1 km/h 74 % 0 mm
02:29 5.1 °C 0.8 °C 1005.3 hPa WNW 12.7 km/h 22.5 km/h 74 % 0 mm
02:34 5.1 °C 0.6 °C 1005.3 hPa NW 10.3 km/h 22.2 km/h 73 % 0 mm
02:39 5 °C 0.4 °C 1005.3 hPa WNW 16.7 km/h 22.5 km/h 72 % 0 mm
02:44 4.9 °C 0.1 °C 1005.6 hPa NW 6.6 km/h 14.8 km/h 71 % 0 mm
02:49 4.9 °C -0.1 °C 1005.6 hPa WNW 13.4 km/h 29.6 km/h 70 % 0 mm
02:54 4.9 °C -0.1 °C 1005.6 hPa WNW 6.9 km/h 18.5 km/h 70 % 0 mm
02:59 4.8 °C 0 °C 1005.6 hPa WNW 10.8 km/h 13 km/h 71 % 0 mm
03:04 4.8 °C 0 °C 1005.6 hPa West 17.2 km/h 22.5 km/h 71 % 0 mm
03:09 4.8 °C 0 °C 1005.6 hPa NW 10.3 km/h 18.5 km/h 71 % 0 mm
03:14 4.8 °C -0.2 °C 1006 hPa WNW 14.6 km/h 31.5 km/h 70 % 0 mm
03:19 4.8 °C 0 °C 1006 hPa NW 12.1 km/h 20.4 km/h 71 % 0 mm
03:24 4.8 °C -0.2 °C 1006 hPa NNW 10.1 km/h 16.7 km/h 70 % 0 mm
03:30 4.8 °C -0.4 °C 1006 hPa WNW 16.9 km/h 25.9 km/h 69 % 0 mm
03:35 4.7 °C -0.5 °C 1006.3 hPa WSW 9.5 km/h 18.5 km/h 69 % 0 mm
03:40 4.7 °C -0.5 °C 1006.3 hPa West 14.6 km/h 20.9 km/h 69 % 0 mm
03:45 4.7 °C -0.5 °C 1006.3 hPa WSW 8.4 km/h 18.5 km/h 69 % 0 mm
03:50 4.7 °C -0.6 °C 1006.3 hPa NW 12.7 km/h 18.5 km/h 69 % 0 mm
03:55 4.6 °C -0.6 °C 1006.7 hPa WNW 12.4 km/h 20.9 km/h 69 % 0 mm
04:00 4.6 °C -1.1 °C 1006.7 hPa NW 16.4 km/h 31.5 km/h 67 % 0 mm
04:05 4.6 °C -1.3 °C 1006.7 hPa NW 15.9 km/h 27.4 km/h 66 % 0 mm
04:10 4.4 °C -1.2 °C 1006.7 hPa NW 6.8 km/h 24.1 km/h 67 % 0 mm
04:15 4.3 °C -1.3 °C 1006.7 hPa North 10.5 km/h 17.7 km/h 67 % 0 mm
04:20 4.2 °C -1.4 °C 1007 hPa NNW 15.3 km/h 27.8 km/h 67 % 0 mm
04:25 4.2 °C -1.6 °C 1007 hPa WNW 13.2 km/h 24.1 km/h 66 % 0 mm
04:30 4.1 °C -1.5 °C 1007.3 hPa NW 6.9 km/h 18.5 km/h 67 % 0 mm
04:35 4.1 °C -1.5 °C 1007.3 hPa NW 13.2 km/h 22.2 km/h 67 % 0 mm
04:40 3.9 °C -1.8 °C 1007.3 hPa NNW 8.9 km/h 18.5 km/h 66 % 0 mm
04:45 3.9 °C -2.3 °C 1007.3 hPa WNW 13.4 km/h 25.9 km/h 64 % 0 mm
04:50 3.8 °C -2.8 °C 1007.7 hPa NNW 17.5 km/h 25.9 km/h 62 % 0 mm
04:55 3.8 °C -3.3 °C 1007.7 hPa NNW 20.9 km/h 33.3 km/h 60 % 0 mm
05:05 3.7 °C -3.4 °C 1008 hPa WNW 16.1 km/h 29.6 km/h 60 % 0 mm
05:10 3.6 °C -3.2 °C 1008.4 hPa SSW 10.3 km/h 18.5 km/h 61 % 0 mm
05:15 3.6 °C -3.5 °C 1008.4 hPa West 11.9 km/h 22.2 km/h 60 % 0 mm
05:21 3.5 °C -3.8 °C 1008.4 hPa NW 20.8 km/h 31.5 km/h 59 % 0 mm
05:26 3.4 °C -4.3 °C 1008.4 hPa NW 21.2 km/h 37 km/h 57 % 0 mm
05:31 3.4 °C -4.3 °C 1008.4 hPa WNW 14.6 km/h 24.1 km/h 57 % 0 mm
05:36 3.3 °C -3.9 °C 1008.7 hPa West 13.5 km/h 20.9 km/h 59 % 0 mm
05:41 3.3 °C -4.4 °C 1008.7 hPa WNW 12.6 km/h 25.9 km/h 57 % 0 mm
05:46 3.3 °C -4 °C 1008.7 hPa NW 11.4 km/h 18.5 km/h 59 % 0 mm
05:51 3.2 °C -3.6 °C 1009 hPa WNW 11.1 km/h 18.5 km/h 61 % 0 mm
05:56 3.2 °C -3.8 °C 1009 hPa West 8.5 km/h 31.5 km/h 60 % 0 mm
06:01 3.1 °C -3.9 °C 1009 hPa NNW 6.4 km/h 16.7 km/h 60 % 0 mm
06:06 3.1 °C -3.7 °C 1009.4 hPa WNW 3.2 km/h 3.7 km/h 61 % 0 mm
06:11 3 °C -4 °C 1009.4 hPa NW 10.1 km/h 18.5 km/h 60 % 0 mm
06:16 2.9 °C -4.1 °C 1009.7 hPa WNW 10.1 km/h 24.1 km/h 60 % 0 mm
06:21 2.9 °C -3.8 °C 1009.7 hPa North 7.1 km/h 14.8 km/h 61 % 0 mm
06:26 2.9 °C -4.1 °C 1009.7 hPa NW 12.9 km/h 18.5 km/h 60 % 0 mm
06:31 2.9 °C -3.8 °C 1009.7 hPa NW 9.7 km/h 16.7 km/h 61 % 0 mm
06:36 2.9 °C -3.6 °C 1009.7 hPa WNW 8.9 km/h 18.5 km/h 62 % 0 mm
06:41 2.9 °C -3.6 °C 1010 hPa West 6.8 km/h 14.5 km/h 62 % 0 mm
06:46 3 °C -3.6 °C 1010 hPa WNW 8.5 km/h 14.8 km/h 62 % 0 mm
06:51 3.1 °C -3.7 °C 1010 hPa NW 5 km/h 24.1 km/h 61 % 0 mm
06:56 3.2 °C -3.6 °C 1010.4 hPa NNW 8 km/h 16.7 km/h 61 % 0 mm
07:01 3.3 °C -3.6 °C 1010.4 hPa NW 8 km/h 14.8 km/h 61 % 0 mm
07:06 3.4 °C -3.4 °C 1010.4 hPa WNW 7.1 km/h 16.7 km/h 61 % 0 mm
07:11 3.4 °C -3.4 °C 1010.7 hPa WNW 7.9 km/h 18.5 km/h 61 % 0 mm
07:16 3.4 °C -3.2 °C 1010.7 hPa NW 12.6 km/h 17.7 km/h 62 % 0 mm
07:21 3.4 °C -3.2 °C 1010.7 hPa WSW 6.1 km/h 14.8 km/h 62 % 0 mm
07:27 3.4 °C -2.9 °C 1011.1 hPa NW 7.1 km/h 16.1 km/h 63 % 0 mm
07:32 3.4 °C -2.9 °C 1011.1 hPa NW 13.5 km/h 27.4 km/h 63 % 0 mm
07:37 3.4 °C -3.2 °C 1011.1 hPa NW 11.6 km/h 20.4 km/h 62 % 0 mm
07:42 3.4 °C -3.6 °C 1011.4 hPa NW 13.4 km/h 29.6 km/h 60 % 0 mm
07:47 3.4 °C -3.4 °C 1011.4 hPa WNW 16.1 km/h 18.5 km/h 61 % 0 mm
07:52 3.4 °C -3.4 °C 1011.4 hPa NW 12.6 km/h 20.4 km/h 61 % 0 mm
07:57 3.4 °C -3.4 °C 1011.7 hPa NW 11.9 km/h 20.4 km/h 61 % 0 mm
08:02 3.4 °C -3.4 °C 1011.7 hPa NW 12.6 km/h 22.5 km/h 61 % 0 mm
08:07 3.4 °C -3.4 °C 1012.1 hPa NW 15.8 km/h 20.4 km/h 61 % 0 mm
08:12 3.4 °C -3.7 °C 1012.1 hPa NNW 11.9 km/h 24.1 km/h 60 % 0 mm
08:17 3.3 °C -3.5 °C 1012.1 hPa NNW 10.9 km/h 31.5 km/h 61 % 0 mm
08:22 3.3 °C -3.5 °C 1012.1 hPa WNW 13 km/h 20.4 km/h 61 % 0 mm
08:27 3.3 °C -3.7 °C 1012.1 hPa NNW 18.2 km/h 35.4 km/h 60 % 0 mm
08:32 3.4 °C -3.9 °C 1012.1 hPa WNW 12.7 km/h 33.3 km/h 59 % 0 mm
08:37 3.4 °C -3.7 °C 1012.4 hPa WNW 9 km/h 29.6 km/h 60 % 0 mm
08:42 3.4 °C -3.8 °C 1012.1 hPa WNW 10.6 km/h 22.5 km/h 59 % 0 mm
08:47 3.4 °C -3.6 °C 1012.4 hPa NW 11.7 km/h 18.5 km/h 60 % 0 mm
08:52 3.5 °C -3.8 °C 1012.4 hPa NW 8.4 km/h 14.8 km/h 59 % 0 mm
08:57 3.5 °C -3.6 °C 1012.8 hPa WSW 11.3 km/h 25.9 km/h 60 % 0 mm
09:02 3.6 °C -3.5 °C 1012.8 hPa NW 11.1 km/h 24.1 km/h 60 % 0 mm
09:07 3.6 °C -3 °C 1012.8 hPa West 13.8 km/h 19.3 km/h 62 % 0 mm
09:12 3.7 °C -3.6 °C 1012.8 hPa WNW 9 km/h 14.8 km/h 59 % 0 mm
09:18 3.7 °C -3.6 °C 1013.1 hPa NW 16.1 km/h 25.9 km/h 59 % 0 mm
09:23 3.7 °C -3.6 °C 1013.1 hPa NW 9.7 km/h 17.7 km/h 59 % 0 mm
09:28 3.8 °C -4.2 °C 1013.1 hPa WNW 15.4 km/h 27.4 km/h 56 % 0 mm
09:33 3.8 °C -4.4 °C 1013.1 hPa NW 11.1 km/h 20.4 km/h 55 % 0 mm
09:38 3.9 °C -4.1 °C 1013.1 hPa NNW 12.4 km/h 19.3 km/h 56 % 0 mm
09:43 4.1 °C -3.9 °C 1013.1 hPa WNW 16.4 km/h 24.1 km/h 56 % 0 mm
09:48 4.1 °C -4.1 °C 1013.4 hPa NW 16.3 km/h 24.1 km/h 55 % 0 mm
09:53 4.1 °C -4.7 °C 1013.4 hPa NNW 11.6 km/h 16.7 km/h 53 % 0 mm
09:58 4.2 °C -4.1 °C 1013.4 hPa WNW 18.7 km/h 27.8 km/h 55 % 0 mm
10:03 4.2 °C -4.1 °C 1013.4 hPa WNW 8 km/h 27.8 km/h 55 % 0 mm
10:08 4.3 °C -3.4 °C 1013.4 hPa NNW 7.9 km/h 18.5 km/h 57 % 0 mm
10:13 4.4 °C -3.8 °C 1013.4 hPa West 10.9 km/h 27.8 km/h 55 % 0 mm
10:19 4.4 °C -3.4 °C 1013.8 hPa West 8.4 km/h 25.7 km/h 57 % 0 mm
10:24 4.2 °C -4.1 °C 1013.8 hPa NW 10.8 km/h 27.8 km/h 55 % 0 mm
10:29 4.2 °C -4.1 °C 1013.8 hPa North 8.5 km/h 18.5 km/h 55 % 0 mm
10:34 4.2 °C -4.3 °C 1014.1 hPa WNW 9.8 km/h 20.4 km/h 54 % 0 mm
10:39 4.2 °C -4.1 °C 1014.1 hPa WNW 11.1 km/h 16.1 km/h 55 % 0 mm
10:44 4.5 °C -3.8 °C 1014.1 hPa WNW 14.6 km/h 22.2 km/h 55 % 0 mm
10:49 4.7 °C -4.4 °C 1014.1 hPa West 10 km/h 25.7 km/h 52 % 0 mm
10:54 4.8 °C -4.2 °C 1014.1 hPa SSW 8.7 km/h 24.1 km/h 52 % 0 mm
10:59 5.1 °C -4.5 °C 1014.1 hPa WNW 10.6 km/h 20.9 km/h 50 % 0 mm
11:04 5.2 °C -3.9 °C 1014.1 hPa West 3.2 km/h 11.1 km/h 52 % 0 mm
11:09 5.4 °C -3.9 °C 1014.1 hPa NW 11.3 km/h 22.2 km/h 51 % 0 mm
11:14 5.5 °C -4.1 °C 1014.4 hPa NNW 12.4 km/h 22.2 km/h 50 % 0 mm
11:19 5.3 °C -4 °C 1014.4 hPa WNW 13.5 km/h 27.8 km/h 51 % 0 mm
11:24 5.2 °C -3.9 °C 1014.4 hPa WNW 12.1 km/h 27.8 km/h 52 % 0 mm
11:29 5 °C -4.6 °C 1014.4 hPa WNW 7.4 km/h 27.8 km/h 50 % 0 mm
11:34 5.2 °C -3.4 °C 1014.4 hPa WNW 9.3 km/h 16.7 km/h 54 % 0 mm
11:39 5.3 °C -4.3 °C 1014.4 hPa West 13.5 km/h 25.9 km/h 50 % 0 mm
11:44 5.4 °C -3.9 °C 1014.4 hPa NW 12.4 km/h 18.5 km/h 51 % 0 mm
11:49 5.4 °C -3.9 °C 1014.4 hPa WNW 11.1 km/h 22.2 km/h 51 % 0 mm
11:54 5.3 °C -4.1 °C 1014.4 hPa NNW 9.3 km/h 14.8 km/h 51 % 0 mm
11:59 5 °C -4.6 °C 1014.8 hPa WNW 8.5 km/h 20.9 km/h 50 % 0 mm
12:04 4.7 °C -4.4 °C 1014.8 hPa WNW 12.4 km/h 24.1 km/h 52 % 0 mm
12:09 4.4 °C -4.3 °C 1014.8 hPa WNW 12.6 km/h 20.9 km/h 53 % 0 mm
12:15 4.4 °C -5.1 °C 1014.8 hPa NW 13.7 km/h 27.8 km/h 50 % 0 mm
12:20 4.6 °C -4.7 °C 1014.8 hPa NNW 15 km/h 27.8 km/h 51 % 0 mm
12:25 4.8 °C -4.8 °C 1014.8 hPa WNW 14.6 km/h 22.2 km/h 50 % 0 mm
12:30 4.9 °C -4.1 °C 1014.8 hPa SSW 9.8 km/h 9.8 km/h 52 % 0 mm
12:35 5.1 °C -4.8 °C 1014.8 hPa WNW 13.2 km/h 22.2 km/h 49 % 0 mm
12:40 5.2 °C -4.7 °C 1014.8 hPa West 7.9 km/h 16.7 km/h 49 % 0 mm
12:45 5.4 °C -5.1 °C 1014.8 hPa West 13.8 km/h 25.9 km/h 47 % 0 mm
12:50 5.5 °C -4.4 °C 1014.8 hPa WNW 10.8 km/h 20.9 km/h 49 % 0 mm
12:55 5.6 °C -4.6 °C 1014.8 hPa West 6.8 km/h 17.7 km/h 48 % 0 mm
13:00 5.7 °C -4.4 °C 1014.8 hPa NW 13.5 km/h 18.5 km/h 48 % 0 mm
13:05 5.8 °C -4.7 °C 1014.8 hPa NW 10.1 km/h 20.4 km/h 47 % 0 mm
13:10 5.8 °C -4.9 °C 1014.8 hPa NW 9.2 km/h 25.9 km/h 46 % 0 mm
13:15 5.8 °C -4.9 °C 1014.8 hPa WNW 8.5 km/h 24.1 km/h 46 % 0 mm
13:20 5.8 °C -4.7 °C 1014.8 hPa West 12.6 km/h 18.5 km/h 47 % 0 mm
13:25 5.8 °C -5.2 °C 1014.8 hPa NW 4.8 km/h 14.8 km/h 45 % 0 mm
13:30 5.9 °C -4.9 °C 1014.8 hPa West 5.5 km/h 11.1 km/h 46 % 0 mm
13:35 6 °C -4.5 °C 1014.8 hPa NW 9.7 km/h 18.5 km/h 47 % 0 mm
13:40 6.2 °C -4.9 °C 1014.8 hPa West 11.1 km/h 17.7 km/h 45 % 0 mm
13:45 6.2 °C -4.8 °C 1015.1 hPa NW 13.8 km/h 20.4 km/h 45 % 0 mm
13:50 6.2 °C -5.2 °C 1015.1 hPa WNW 9 km/h 18.5 km/h 44 % 0 mm
13:55 6.2 °C -4.8 °C 1015.1 hPa NW 10.3 km/h 20.9 km/h 45 % 0 mm
14:01 6.2 °C -4.9 °C 1015.1 hPa NW 11.3 km/h 16.7 km/h 45 % 0 mm
14:06 6.2 °C -4.8 °C 1015.1 hPa NW 16.1 km/h 22.2 km/h 45 % 0 mm
14:11 6.2 °C -4.9 °C 1015.1 hPa WNW 12.6 km/h 22.2 km/h 45 % 0 mm
14:16 6.1 °C -5.3 °C 1015.1 hPa West 8.9 km/h 16.7 km/h 44 % 0 mm
14:21 6.1 °C -5.3 °C 1015.1 hPa West 9.3 km/h 16.7 km/h 44 % 0 mm
14:26 6.2 °C -4.6 °C 1015.1 hPa NW 10.3 km/h 16.7 km/h 46 % 0 mm
14:31 6.1 °C -4.1 °C 1015.1 hPa WNW 13.2 km/h 17.7 km/h 48 % 0 mm
14:36 6 °C -4.5 °C 1015.1 hPa NW 13 km/h 22.2 km/h 47 % 0 mm
14:42 5.9 °C -4.6 °C 1015.1 hPa WNW 6 km/h 14.8 km/h 47 % 0 mm
14:47 5.8 °C -4.3 °C 1015.5 hPa NW 10 km/h 16.7 km/h 48 % 0 mm
14:52 5.7 °C -4.4 °C 1015.5 hPa NW 8.5 km/h 18.5 km/h 48 % 0 mm
14:57 5.6 °C -4.1 °C 1015.8 hPa NW 10.3 km/h 20.4 km/h 50 % 0 mm
15:02 5.4 °C -4.2 °C 1015.8 hPa WNW 4.2 km/h 14.8 km/h 50 % 0 mm
15:07 5.3 °C -4.9 °C 1015.8 hPa WNW 13.8 km/h 20.4 km/h 48 % 0 mm
15:12 5.2 °C -4.4 °C 1015.8 hPa WNW 10 km/h 18.5 km/h 50 % 0 mm
15:17 5.1 °C -5 °C 1015.8 hPa WNW 14 km/h 18.5 km/h 48 % 0 mm
15:22 5.1 °C -4.5 °C 1015.8 hPa NW 7.1 km/h 22.2 km/h 50 % 0 mm
15:27 5 °C -4.8 °C 1015.8 hPa WNW 11.7 km/h 27.4 km/h 49 % 0 mm
15:32 4.9 °C -5.2 °C 1015.8 hPa NW 11.9 km/h 20.4 km/h 48 % 0 mm
15:37 4.8 °C -5 °C 1016.1 hPa NW 13.4 km/h 24.1 km/h 49 % 0 mm
15:42 4.8 °C -4.2 °C 1016.1 hPa WNW 7.6 km/h 19.3 km/h 52 % 0 mm
15:47 4.8 °C -4.8 °C 1016.1 hPa West 8.7 km/h 14.8 km/h 50 % 0 mm
15:52 4.8 °C -4 °C 1016.1 hPa NNW 4.3 km/h 13 km/h 53 % 0 mm
15:57 4.7 °C -4.1 °C 1016.1 hPa WNW 4.5 km/h 16.7 km/h 53 % 0 mm
16:02 4.7 °C -4.4 °C 1016.5 hPa NNW 10.6 km/h 19.3 km/h 52 % 0 mm
16:07 4.6 °C -4.7 °C 1016.5 hPa NW 12.1 km/h 22.2 km/h 51 % 0 mm
16:12 4.6 °C -4.7 °C 1016.8 hPa NW 9.2 km/h 18.5 km/h 51 % 0 mm
16:18 4.5 °C -4.8 °C 1016.8 hPa NNW 8.2 km/h 18.5 km/h 51 % 0 mm
16:23 4.5 °C -4.5 °C 1016.8 hPa NNW 8.9 km/h 13 km/h 52 % 0 mm
16:28 4.4 °C -4.6 °C 1016.8 hPa WNW 7.9 km/h 18.5 km/h 52 % 0 mm
16:33 4.4 °C -4.6 °C 1016.8 hPa WNW 9.5 km/h 22.5 km/h 52 % 0 mm
16:38 4.4 °C -4.9 °C 1017.2 hPa NNW 9 km/h 14.5 km/h 51 % 0 mm
16:43 4.3 °C -4.4 °C 1017.2 hPa WNW 8.9 km/h 18.5 km/h 53 % 0 mm
16:48 4.3 °C -4 °C 1017.2 hPa NW 7.4 km/h 11.1 km/h 55 % 0 mm
16:53 4.2 °C -4.1 °C 1017.5 hPa NNW 12.4 km/h 18.5 km/h 55 % 0 mm
16:58 4.2 °C -4.1 °C 1017.5 hPa NNW 7.2 km/h 14.5 km/h 55 % 0 mm
17:03 4.1 °C -4.4 °C 1017.5 hPa NW 9.7 km/h 19.3 km/h 54 % 0 mm
17:08 4 °C -4.5 °C 1017.8 hPa NW 8 km/h 12.9 km/h 54 % 0 mm
17:13 3.9 °C -4.6 °C 1017.8 hPa NW 9.7 km/h 20.9 km/h 54 % 0 mm
17:18 3.9 °C -4.8 °C 1017.8 hPa NW 8 km/h 19.3 km/h 53 % 0 mm
17:23 3.8 °C -4.4 °C 1017.8 hPa NW 11.3 km/h 19.3 km/h 55 % 0 mm
17:28 3.8 °C -4.2 °C 1018.2 hPa NW 3.2 km/h 19.3 km/h 56 % 0 mm
17:33 3.8 °C -4.4 °C 1018.2 hPa NW 5.3 km/h 7.4 km/h 55 % 0 mm
17:38 3.8 °C -4.4 °C 1018.2 hPa NW 11.3 km/h 25.7 km/h 55 % 0 mm
17:43 3.7 °C -4.5 °C 1018.2 hPa NW 11.3 km/h 19.3 km/h 55 % 0 mm
17:48 3.7 °C -4.8 °C 1018.5 hPa NNW 8 km/h 19.3 km/h 54 % 0 mm
17:53 3.6 °C -4.6 °C 1018.5 hPa NW 9.7 km/h 14.5 km/h 55 % 0 mm
17:58 3.5 °C -4.7 °C 1018.5 hPa WNW 9.7 km/h 18.5 km/h 55 % 0 mm
18:03 3.4 °C -4.5 °C 1018.8 hPa WNW 6.6 km/h 14.8 km/h 56 % 0 mm
18:08 3.4 °C -4.8 °C 1018.8 hPa NW 11.1 km/h 22.2 km/h 55 % 0 mm
18:13 3.4 °C -4.6 °C 1018.8 hPa NW 6.6 km/h 14.8 km/h 56 % 0 mm
18:18 3.4 °C -5.1 °C 1018.8 hPa WNW 8.4 km/h 18.5 km/h 54 % 0 mm
18:23 3.4 °C -4.8 °C 1019.2 hPa NNW 5 km/h 9.7 km/h 55 % 0 mm
18:28 3.3 °C -4.4 °C 1019.5 hPa NNW 6.8 km/h 13 km/h 57 % 0 mm
18:33 3.3 °C -4.6 °C 1019.5 hPa NNW 8.4 km/h 18.5 km/h 56 % 0 mm
18:38 3.3 °C -4.7 °C 1019.9 hPa NNW 7.2 km/h 16.7 km/h 56 % 0 mm
18:43 3.3 °C -4.4 °C 1019.9 hPa WNW 4.5 km/h 14.8 km/h 57 % 0 mm
18:48 3.2 °C -4.7 °C 1019.9 hPa North 5.3 km/h 18.5 km/h 56 % 0 mm
18:53 3.2 °C -4.7 °C 1020.2 hPa NNW 9.8 km/h 14.5 km/h 56 % 0 mm
18:58 3.2 °C -4.8 °C 1020.2 hPa NW 8.5 km/h 13 km/h 56 % 0 mm
19:03 3.1 °C -5.1 °C 1020.2 hPa NW 7.4 km/h 16.1 km/h 55 % 0 mm
19:09 3.1 °C -5.1 °C 1020.2 hPa NW 4.2 km/h 14.8 km/h 55 % 0 mm
19:14 3.1 °C -4.9 °C 1020.5 hPa NW 9.2 km/h 18.5 km/h 56 % 0 mm
19:19 3 °C -5.2 °C 1020.5 hPa WNW 10.5 km/h 25.9 km/h 55 % 0 mm
19:24 3.1 °C -4.9 °C 1020.5 hPa WNW 8.2 km/h 18.5 km/h 56 % 0 mm
19:29 3 °C -5.2 °C 1020.5 hPa NW 8.7 km/h 14.8 km/h 55 % 0 mm
19:34 3 °C -4.9 °C 1020.5 hPa West 4.8 km/h 9.3 km/h 56 % 0 mm
19:39 3 °C -4.9 °C 1020.9 hPa NNW 11.6 km/h 11.6 km/h 56 % 0 mm
19:44 3 °C -4.7 °C 1020.9 hPa NW 6.9 km/h 11.3 km/h 57 % 0 mm
19:49 2.9 °C -4.8 °C 1021.2 hPa WNW 10.8 km/h 14.8 km/h 57 % 0 mm
19:54 2.9 °C -5 °C 1021.2 hPa WNW 5.8 km/h 20.4 km/h 56 % 0 mm
19:59 2.9 °C -5 °C 1021.2 hPa NW 4 km/h 14.8 km/h 56 % 0 mm
20:04 2.9 °C -5.1 °C 1021.2 hPa WNW 4.7 km/h 7.4 km/h 56 % 0 mm
20:09 2.9 °C -4.8 °C 1021.2 hPa West 5.6 km/h 11.1 km/h 57 % 0 mm
20:14 2.8 °C -4.8 °C 1021.6 hPa NW 7.7 km/h 11.1 km/h 57 % 0 mm
20:19 2.8 °C -4.9 °C 1021.6 hPa West 6 km/h 12.9 km/h 57 % 0 mm
20:24 2.8 °C -4.9 °C 1021.6 hPa West 7.4 km/h 13 km/h 57 % 0 mm
20:29 2.7 °C -5.2 °C 1021.6 hPa NW 7.4 km/h 11.1 km/h 56 % 0 mm
20:34 2.7 °C -5.2 °C 1021.9 hPa NW 6.8 km/h 14.8 km/h 56 % 0 mm
20:39 2.7 °C -5 °C 1021.9 hPa West 6.1 km/h 11.3 km/h 57 % 0 mm
20:44 2.7 °C -5 °C 1021.9 hPa WNW 4.7 km/h 9.7 km/h 57 % 0 mm
20:49 2.6 °C -5.1 °C 1021.9 hPa West 5 km/h 9.7 km/h 57 % 0 mm
20:54 2.6 °C -5.1 °C 1022.2 hPa West 3.9 km/h 7.4 km/h 57 % 0 mm
20:59 2.5 °C -5.2 °C 1022.2 hPa WNW 2.7 km/h 6.4 km/h 57 % 0 mm
21:05 2.4 °C -5 °C 1022.6 hPa West 4.3 km/h 9.3 km/h 58 % 0 mm
21:10 2.4 °C -5.2 °C 1022.2 hPa West 1 km/h 5.6 km/h 57 % 0 mm
21:15 2.4 °C -5.3 °C 1022.2 hPa WNW 1.3 km/h 5.6 km/h 57 % 0 mm
21:20 2.3 °C -5.1 °C 1022.6 hPa WNW 2.1 km/h 13 km/h 58 % 0 mm
21:25 2.3 °C -5.2 °C 1022.6 hPa West 2.1 km/h 5.6 km/h 58 % 0 mm
21:30 2.2 °C -5.2 °C 1022.6 hPa WNW 3.1 km/h 5.6 km/h 58 % 0 mm
21:35 2.2 °C -5.5 °C 1022.6 hPa WNW 5 km/h 13 km/h 57 % 0 mm
21:40 2.2 °C -5.7 °C 1022.6 hPa NW 9 km/h 16.7 km/h 56 % 0 mm
21:45 2.1 °C -5.8 °C 1022.6 hPa NW 5.8 km/h 11.3 km/h 56 % 0 mm
21:50 2.1 °C -5.8 °C 1022.6 hPa West 5.8 km/h 9.7 km/h 56 % 0 mm
21:55 2.1 °C -5.8 °C 1022.9 hPa WNW 2.7 km/h 5.6 km/h 56 % 0 mm
22:00 2.1 °C -5.8 °C 1022.9 hPa West 4.2 km/h 13 km/h 56 % 0 mm
22:05 2.1 °C -5.6 °C 1022.6 hPa West 4 km/h 11.1 km/h 57 % 0 mm
22:10 2.1 °C -5.6 °C 1022.6 hPa SW 0.6 km/h 1.9 km/h 57 % 0 mm
22:15 2.1 °C -5.6 °C 1022.9 hPa NW 2.3 km/h 5.6 km/h 57 % 0 mm
22:20 2.1 °C -5.3 °C 1022.9 hPa WSW 2.1 km/h 7.4 km/h 58 % 0 mm
22:25 2.1 °C -5.3 °C 1022.9 hPa WSW 2.1 km/h 4.8 km/h 58 % 0 mm
22:30 2 °C -5.2 °C 1022.9 hPa SW 5.5 km/h 9.7 km/h 59 % 0 mm
22:35 1.9 °C -5.2 °C 1022.9 hPa West 2.7 km/h 6.4 km/h 59 % 0 mm
22:40 1.9 °C -5.3 °C 1022.9 hPa West 2.7 km/h 5.6 km/h 59 % 0 mm
22:45 1.8 °C -5.3 °C 1022.9 hPa West 4.7 km/h 8 km/h 59 % 0 mm
22:50 1.8 °C -5.4 °C 1022.9 hPa WSW 2.9 km/h 5.6 km/h 59 % 0 mm
22:55 1.8 °C -5.4 °C 1022.9 hPa West 0.8 km/h 3.2 km/h 59 % 0 mm
23:00 1.8 °C -5.4 °C 1023.2 hPa West 1.4 km/h 3.7 km/h 59 % 0 mm
23:05 1.7 °C -5.2 °C 1023.2 hPa West 2.7 km/h 5.6 km/h 60 % 0 mm
23:11 1.7 °C -5.2 °C 1023.2 hPa South 1.8 km/h 3.7 km/h 60 % 0 mm
23:16 1.7 °C -5.1 °C 1023.2 hPa South 2.4 km/h 3.7 km/h 61 % 0 mm
23:21 1.6 °C -5.2 °C 1023.6 hPa WSW 2.9 km/h 5.6 km/h 61 % 0 mm
23:26 1.5 °C -5.2 °C 1023.2 hPa Calm   1.9 km/h 61 % 0 mm
23:31 1.4 °C -5.3 °C 1023.2 hPa WSW 0.5 km/h 1.6 km/h 61 % 0 mm
23:36 1.3 °C -5.4 °C 1023.2 hPa WSW 1.4 km/h 3.7 km/h 61 % 0 mm
23:41 1.2 °C -5.1 °C 1023.6 hPa Calm   1.9 km/h 63 % 0 mm
23:46 1.1 °C -5.2 °C 1023.9 hPa SW 2.3 km/h 3.7 km/h 63 % 0 mm
23:51 0.9 °C -5.4 °C 1023.9 hPa Calm   3.7 km/h 63 % 0 mm
23:56 0.8 °C -5.5 °C 1023.9 hPa Calm   1.9 km/h 63 % 0 mm
Crab Meadow Weather
Compliments of Weather Underground - 3 mb

Script developed by  Jim McMurry - jmcmurry@mwt.net Adapted for the template by  Wim van der Kuil - Leuven-Template.eu

Astronomy: It takes 16 million horsepower to break loose from the Earth's gravitational pull.